This is the latest recevied weather packets stored in our database for station/object DB0SWS-6. If no packets are shown the sender has not sent any weather packets the latest 10 day(s).
| Time | Temp. | Humidity | Pressure | Rain* | Wind** | Luminosity | Snow |
|---|---|---|---|---|---|---|---|
| 1777939411 | 11.67° C | 87% | 958 hPa | 0 mm | - | - | - |
| 1777937613 | 12.22° C | 86% | 958.4 hPa | 0 mm | - | - | - |
| 1777935810 | 12.78° C | 85% | 958.4 hPa | 0 mm | - | - | - |
| 1777934011 | 12.78° C | 87% | 958.6 hPa | 0 mm | - | - | - |
| 1777932210 | 12.78° C | 85% | 959.1 hPa | 0 mm | - | - | - |
| 1777930411 | 12.78° C | 88% | 959.5 hPa | 0 mm | - | - | - |
| 1777928610 | 12.78° C | 90% | 959.5 hPa | 0 mm | - | - | - |
| 1777926810 | 12.78° C | 86% | 959.1 hPa | 0 mm | - | - | - |
| 1777925011 | 12.78° C | 87% | 959.2 hPa | 0 mm | - | - | - |
| 1777923209 | 13.33° C | 83% | 959.1 hPa | 0 mm | - | - | - |
| 1777921411 | 13.89° C | 81% | 959 hPa | 0 mm | - | - | - |
| 1777919611 | 15° C | 75% | 959.3 hPa | 0 mm | - | - | - |
| 1777917811 | 15.56° C | 72% | 959.5 hPa | 0 mm | - | - | - |
| 1777916011 | 16.11° C | 68% | 959.5 hPa | 0 mm | - | - | - |
| 1777914210 | 16.67° C | 67% | 959.4 hPa | 0 mm | - | - | - |
| 1777912411 | 16.67° C | 65% | 959.6 hPa | 0 mm | - | - | - |
| 1777910611 | 16.67° C | 61% | 959.4 hPa | 0 mm | - | - | - |
| 1777908810 | 16.67° C | 60% | 959.4 hPa | 0 mm | - | - | - |
| 1777907010 | 17.78° C | 61% | 959.3 hPa | 0 mm | - | - | - |
| 1777905211 | 18.33° C | 57% | 959 hPa | 0 mm | - | - | - |
| 1777903411 | 18.89° C | 55% | 959.1 hPa | 0 mm | - | - | - |
| 1777901610 | 18.33° C | 54% | 959.2 hPa | 0 mm | - | - | - |
| 1777899810 | 17.78° C | 56% | 959.5 hPa | 0 mm | - | - | - |
| 1777898010 | 18.33° C | 54% | 959.7 hPa | 0 mm | - | - | - |
| 1777896211 | 18.89° C | 50% | 959.7 hPa | 0 mm | - | - | - |
* Rain latest hour (hover to see other rain measurements)
** Current wind speed in m/s (hover to see current wind gust speed)